When you browse on this site, cookies collect data to enhance your experience and personalize the content and advertising you see.
Visit our Privacy Policy to learn more. By continuing to use the site, you agree to this use of cookies and data.
  • In Hungary
  • List of Countries
  • For 7 days
  • Water Temperature
  • Satellite Maps
  • Weather Map
  • News
  • Weather Widgets
  • user-avatar
    Login

    Hourly Weather Haarlem

    Today, 20 January, Sunday

    Time Temperature Precipitation Wind Pressure Humidity
    00:00 -3°C° 0 mm 4 mps 761 mmHg 59%
    01:00 -3°C° 0 mm 4 mps 761 mmHg 59%
    02:00 -3°C° 0 mm 4 mps 761 mmHg 59%
    03:00 -3°C° 0 mm 4 mps 760 mmHg 58%
    04:00 -2°C° 0 mm 3 mps 761 mmHg 58%
    05:00 -2°C° 0 mm 3 mps 761 mmHg 57%
    06:00 -2°C° 0 mm 3 mps 761 mmHg 56%
    07:00 -2°C° 0 mm 3 mps 762 mmHg 55%
    08:00 -2°C° 0 mm 3 mps 762 mmHg 53%
    09:00 -2°C° 0 mm 3 mps 762 mmHg 51%
    10:00 -1°C° 0 mm 3 mps 763 mmHg 48%
    11:00 +1°C° 0 mm 2 mps 763 mmHg 44%
    12:00 +2°C° 0 mm 2 mps 764 mmHg 41%
    13:00 +2°C° 0 mm 2 mps 764 mmHg 42%
    14:00 +2°C° 0 mm 2 mps 764 mmHg 43%
    15:00 +2°C° 0 mm 2 mps 764 mmHg 44%
    16:00 +1°C° 0 mm 2 mps 764 mmHg 48%
    17:00 -1°C° 0 mm 2 mps 765 mmHg 51%
    18:00 -1°C° 0 mm 2 mps 765 mmHg 54%
    19:00 +1°C° 0 mm 1 mps 766 mmHg 56%
    20:00 0°C° 0 mm 1 mps 766 mmHg 58%
    21:00 0°C° 0 mm 1 mps 767 mmHg 61%
    22:00 0°C° 0 mm 1 mps 767 mmHg 61%
    23:00 0°C° 0 mm 1 mps 767 mmHg 62%

    Tomorrow, 21 January, Monday

    Time Temperature Precipitation Wind Pressure Humidity
    00:00 0°C° 0 mm 1 mps 767 mmHg 63%
    01:00 0°C° 0 mm 1 mps 767 mmHg 62%
    02:00 0°C° 0 mm 1 mps 767 mmHg 62%
    03:00 0°C° 0 mm 1 mps 767 mmHg 62%
    04:00 0°C° 0 mm 1 mps 767 mmHg 62%
    05:00 0°C° 0 mm 1 mps 767 mmHg 63%
    06:00 0°C° 0 mm 1 mps 767 mmHg 63%
    07:00 -1°C° 0 mm 2 mps 767 mmHg 62%
    08:00 -1°C° 0 mm 2 mps 767 mmHg 61%
    09:00 -1°C° 0 mm 2 mps 767 mmHg 60%
    10:00 +1°C° 0 mm 2 mps 767 mmHg 58%
    11:00 +1°C° 0 mm 3 mps 766 mmHg 55%
    12:00 +3°C° 0 mm 3 mps 766 mmHg 53%
    13:00 +2°C° 0 mm 3 mps 766 mmHg 55%
    14:00 +2°C° 0 mm 3 mps 765 mmHg 58%
    15:00 +2°C° 0 mm 3 mps 765 mmHg 60%
    16:00 0°C° 0 mm 4 mps 764 mmHg 63%
    17:00 0°C° 0 mm 4 mps 764 mmHg 67%
    18:00 -1°C° 0 mm 4 mps 763 mmHg 70%
    19:00 -1°C° 0 mm 5 mps 763 mmHg 68%
    20:00 -1°C° 0 mm 5 mps 762 mmHg 66%
    21:00 -2°C° 0 mm 6 mps 762 mmHg 64%
    22:00 -3°C° 0 mm 6 mps 761 mmHg 59%
    23:00 -3°C° 0 mm 6 mps 760 mmHg 53%

    Day after tomorrow, 22 January, Tuesday

    Time Temperature Precipitation Wind Pressure Humidity
    00:00 -3°C° 0 mm 6 mps 759 mmHg 48%
    01:00 -3°C° 0 mm 7 mps 758 mmHg 49%
    02:00 -3°C° 0 mm 7 mps 757 mmHg 50%
    03:00 -4°C° 0 mm 8 mps 756 mmHg 52%
    04:00 -4°C° 0 mm 8 mps 754 mmHg 51%
    05:00 -4°C° 0 mm 9 mps 753 mmHg 50%
    06:00 -3°C° 0 mm 9 mps 752 mmHg 49%
    07:00 -4°C° 0.4 mm 9 mps 751 mmHg 60%
    08:00 -4°C° 0.4 mm 9 mps 750 mmHg 70%
    09:00 -4°C° 0.4 mm 9 mps 750 mmHg 81%
    10:00 -4°C° 0.5 mm 8 mps 749 mmHg 83%
    11:00 -3°C° 0.5 mm 7 mps 749 mmHg 85%
    12:00 -2°C° 0.5 mm 7 mps 749 mmHg 87%
    13:00 -2°C° 0.7 mm 6 mps 748 mmHg 88%
    14:00 -1°C° 0.7 mm 5 mps 748 mmHg 89%
    15:00 0°C° 0.7 mm 4 mps 748 mmHg 90%
    16:00 +1°C° 0.2 mm 3 mps 748 mmHg 89%
    17:00 +1°C° 0.2 mm 3 mps 748 mmHg 88%
    18:00 +1°C° 0.2 mm 3 mps 748 mmHg 87%
    19:00 +2°C° 0.1 mm 2 mps 748 mmHg 85%
    20:00 +2°C° 0.1 mm 2 mps 748 mmHg 84%
    21:00 +1°C° 0.1 mm 2 mps 748 mmHg 82%
    22:00 +1°C° 0 mm 2 mps 748 mmHg 82%
    23:00 +1°C° 0 mm 2 mps 748 mmHg 81%

    23 January, Wednesday

    Time Temperature Precipitation Wind Pressure Humidity
    00:00 +1°C° 0 mm 2 mps 748 mmHg 81%
    01:00 +1°C° 0.1 mm 2 mps 748 mmHg 81%
    02:00 +1°C° 0.1 mm 2 mps 748 mmHg 82%
    03:00 +1°C° 0.1 mm 2 mps 748 mmHg 82%
    04:00 +1°C° 0.2 mm 2 mps 748 mmHg 83%
    05:00 0°C° 0.2 mm 3 mps 749 mmHg 84%
    06:00 0°C° 0.2 mm 3 mps 749 mmHg 85%
    07:00 0°C° 0.2 mm 3 mps 749 mmHg 85%
    08:00 +1°C° 0.2 mm 3 mps 750 mmHg 85%
    09:00 0°C° 0.2 mm 4 mps 750 mmHg 85%
    10:00 +1°C° 0.3 mm 4 mps 750 mmHg 83%
    11:00 +1°C° 0.3 mm 4 mps 751 mmHg 82%
    12:00 +2°C° 0.3 mm 5 mps 751 mmHg 80%
    13:00 +2°C° 0.3 mm 5 mps 751 mmHg 80%
    14:00 +2°C° 0.3 mm 5 mps 752 mmHg 79%
    15:00 +2°C° 0.3 mm 5 mps 752 mmHg 79%
    16:00 +1°C° 0.1 mm 5 mps 752 mmHg 80%
    17:00 +1°C° 0.1 mm 5 mps 753 mmHg 80%
    18:00 +1°C° 0.1 mm 4 mps 753 mmHg 81%
    19:00 0°C° 0 mm 4 mps 754 mmHg 81%
    20:00 0°C° 0 mm 4 mps 754 mmHg 81%
    21:00 0°C° 0 mm 4 mps 754 mmHg 81%
    22:00 0°C° 0 mm 4 mps 755 mmHg 81%
    23:00 0°C° 0 mm 4 mps 755 mmHg 80%

    24 January, Thursday

    Time Temperature Precipitation Wind Pressure Humidity
    00:00 0°C° 0 mm 4 mps 755 mmHg 80%
    01:00 0°C° 0 mm 4 mps 755 mmHg 78%
    02:00 +1°C° 0 mm 3 mps 755 mmHg 76%
    03:00 0°C° 0 mm 3 mps 755 mmHg 74%
    04:00 0°C° 0 mm 3 mps 755 mmHg 73%
    05:00 0°C° 0 mm 3 mps 756 mmHg 72%
    06:00 +1°C° 0 mm 2 mps 756 mmHg 71%
    07:00 +1°C° 0 mm 2 mps 756 mmHg 71%
    08:00 +2°C° 0 mm 2 mps 756 mmHg 71%
    09:00 +2°C° 0 mm 2 mps 756 mmHg 70%
    10:00 +3°C° 0 mm 2 mps 757 mmHg 69%
    11:00 +3°C° 0 mm 2 mps 757 mmHg 67%
    12:00 +4°C° 0 mm 2 mps 757 mmHg 66%
    13:00 +5°C° 0 mm 1 mps 757 mmHg 67%
    14:00 +4°C° 0 mm 1 mps 757 mmHg 69%
    15:00 +4°C° 0 mm 1 mps 757 mmHg 70%
    16:00 +3°C° 0 mm 1 mps 758 mmHg 72%
    17:00 +3°C° 0 mm 1 mps 758 mmHg 74%
    18:00 +2°C° 0 mm 1 mps 759 mmHg 76%
    19:00 +2°C° 0 mm 1 mps 759 mmHg 77%
    20:00 +2°C° 0 mm 1 mps 760 mmHg 78%
    21:00 +1°C° 0 mm 1 mps 761 mmHg 79%
    22:00 +1°C° 0 mm 1 mps 761 mmHg 79%
    23:00 +1°C° 0 mm 1 mps 761 mmHg 79%

    25 January, Friday

    Time Temperature Precipitation Wind Pressure Humidity
    00:00 +1°C° 0 mm 1 mps 762 mmHg 79%
    01:00 +1°C° 0 mm 1 mps 762 mmHg 79%
    02:00 +2°C° 0 mm 1 mps 763 mmHg 78%
    03:00 +2°C° 0 mm 1 mps 763 mmHg 78%
    04:00 +2°C° 0 mm 1 mps 764 mmHg 77%
    05:00 +2°C° 0 mm 1 mps 764 mmHg 77%
    06:00 +2°C° 0 mm 1 mps 765 mmHg 77%
    07:00 +2°C° 0 mm 1 mps 765 mmHg 76%
    08:00 +3°C° 0 mm 1 mps 766 mmHg 75%
    09:00 +3°C° 0 mm 1 mps 766 mmHg 73%
    10:00 +3°C° 0 mm 2 mps 766 mmHg 72%
    11:00 +4°C° 0 mm 2 mps 767 mmHg 70%
    12:00 +5°C° 0 mm 2 mps 767 mmHg 68%
    13:00 +5°C° 0 mm 2 mps 767 mmHg 70%
    14:00 +5°C° 0 mm 1 mps 767 mmHg 72%
    15:00 +5°C° 0 mm 1 mps 767 mmHg 74%
    16:00 +4°C° 0 mm 1 mps 767 mmHg 76%
    17:00 +3°C° 0 mm 1 mps 767 mmHg 79%
    18:00 +2°C° 0 mm 1 mps 767 mmHg 81%
    19:00 +1°C° 0 mm 2 mps 768 mmHg 82%
    20:00 +1°C° 0 mm 2 mps 768 mmHg 82%
    21:00 0°C° 0 mm 3 mps 768 mmHg 83%
    22:00 -1°C° 0 mm 4 mps 767 mmHg 82%
    23:00 -1°C° 0 mm 4 mps 767 mmHg 81%
    Show more